Erie, CO

6:20 PM MST on December 13, 2017 (GMT -0700)
Erie Municipal Airport

Weather History for KEIK - October, 2011

Change the Weather History Date:

Tuesday, October 18, 2011

  Actual Average (KBJC) Record (KBJC)
Temperature  
Mean Temperature 46 °F -  
Max Temperature 59 °F 62 °F 84 °F (2003)
Min Temperature 32 °F 39 °F 24 °F (2006)
Degree Days  
Heating Degree Days 20    
Moisture  
Dew Point 27 °F    
Average Humidity 58    
Maximum Humidity 100    
Minimum Humidity 22    
Precipitation  
Precipitation 0.00 in - - ()
Sea Level Pressure  
Sea Level Pressure 30.32 in    
Wind  
Wind Speed 3 mph (NNE)    
Max Wind Speed 18 mph    
Max Gust Speed 24 mph    
Visibility 10 miles    
Events      
Averages and records for this station are not official NWS values.
T = Trace of Precipitation, MM = Missing Value Source: NWS Daily Summary

Daily Weather History Graph

Daily Weather History Graph

Search for Another Location

Airport or City:

Trip Planner

Search our weather history database for the weather conditions in past years. The results will help you decide how hot, cold, wet, or windy it might be!

Date:

Astronomy

Oct. 18, 2011 Rise Set
Actual Time 7:13 AM MDT 6:16 PM MDT
Civil Twilight 6:46 AM MDT 6:43 PM MDT
Nautical Twilight 6:14 AM MDT 7:15 PM MDT
Astronomical Twilight 5:43 AM MDT 7:46 PM MDT
Moon 11:00 PM MDT (10/18) 1:06 PM MDT (10/18)
Length of Visible Light 11h 57m
Length of Day
11h 02m
Waning Gibbous, 64% of the Moon is Illuminated
Oct 18
Waning Gibbous
Oct 19
Last Quarter
Oct 26
New
Nov 2
First Quarter
Nov 10
Full

Hourly Weather History & Observations

Time (MDT) Temp. Windchill Dew Point Humidity Pressure Visibility Wind Dir Wind Speed Gust Speed Precip Events Conditions
12:06 AM 33.8 °F - 32.0 °F 93% 30.26 in 10.0 mi Calm Calm - N/A   Clear
12:26 AM 32.0 °F - 32.0 °F 100% 30.26 in 10.0 mi Calm Calm - N/A   Clear
12:46 AM 32.0 °F - 32.0 °F 100% 30.26 in 10.0 mi Calm Calm - N/A   Clear
1:06 AM 32.0 °F - 32.0 °F 100% 30.26 in 10.0 mi Calm Calm - N/A   Clear
1:26 AM 32.0 °F - 32.0 °F 100% 30.27 in 10.0 mi Calm Calm - N/A   Clear
1:46 AM 32.0 °F - 32.0 °F 100% 30.28 in 10.0 mi Calm Calm - N/A   Clear
2:06 AM 32.0 °F - 32.0 °F 100% 30.29 in 10.0 mi Calm Calm - N/A   Clear
2:26 AM 32.0 °F 28.7 °F 32.0 °F 100% 30.29 in 10.0 mi SW 3.5 mph - N/A   Clear
2:46 AM 32.0 °F - 32.0 °F 100% 30.29 in 10.0 mi Calm Calm - N/A   Clear
3:06 AM 32.0 °F - 32.0 °F 100% 30.30 in 10.0 mi Calm Calm - N/A   Clear
3:26 AM 33.8 °F 30.8 °F 32.0 °F 93% 30.30 in 10.0 mi SE 3.5 mph - N/A   Clear
3:46 AM 33.8 °F - 32.0 °F 93% 30.30 in 10.0 mi Calm Calm - N/A   Scattered Clouds
4:06 AM 32.0 °F - 32.0 °F 100% 30.32 in 10.0 mi Calm Calm - N/A   Mostly Cloudy
4:26 AM 32.0 °F - 32.0 °F 100% 30.33 in 10.0 mi Calm Calm - N/A   Mostly Cloudy
4:46 AM 32.0 °F - 32.0 °F 100% 30.33 in 10.0 mi Calm Calm - N/A   Overcast
5:26 AM 33.8 °F - 32.0 °F 93% 30.35 in 10.0 mi Calm Calm - N/A   Overcast
5:46 AM 33.8 °F 30.8 °F 32.0 °F 93% 30.35 in 10.0 mi SW 3.5 mph - N/A   Mostly Cloudy
6:06 AM 33.8 °F - 32.0 °F 93% 30.36 in 10.0 mi Calm Calm - N/A   Mostly Cloudy
6:24 AM 33.8 °F 30.8 °F 33.8 °F 100% 30.36 in 10.0 mi SSW 3.5 mph - N/A   Overcast
9:06 AM 41.0 °F - 37.4 °F 87% 30.39 in 7.0 mi Calm Calm - N/A   Mostly Cloudy
9:26 AM 42.8 °F - 37.4 °F 81% 30.39 in 10.0 mi Calm Calm - N/A   Mostly Cloudy
9:46 AM 46.4 °F - 33.8 °F 62% 30.39 in 10.0 mi Calm Calm - N/A   Scattered Clouds
10:06 AM 48.2 °F - 32.0 °F 54% 30.39 in 10.0 mi SSE 3.5 mph - N/A   Clear
10:26 AM 50.0 °F - 30.2 °F 47% 30.38 in 10.0 mi Calm Calm - N/A   Clear
10:46 AM 50.0 °F - 28.4 °F 43% 30.37 in 10.0 mi East 4.6 mph - N/A   Clear
11:26 AM 51.8 °F - 26.6 °F 38% 30.37 in 10.0 mi Calm Calm - N/A   Clear
11:46 AM 51.8 °F - 26.6 °F 38% 30.37 in 10.0 mi NNE 8.1 mph - N/A   Clear
12:06 PM 53.6 °F - 24.8 °F 33% 30.36 in 10.0 mi NNE 9.2 mph - N/A   Clear
12:26 PM 55.4 °F - 23.0 °F 29% 30.35 in 10.0 mi NNE 15.0 mph 19.6 mph N/A   Clear
12:46 PM 55.4 °F - 21.2 °F 26% 30.34 in 10.0 mi NNE 15.0 mph 21.9 mph N/A   Clear
1:06 PM 55.4 °F - 21.2 °F 26% 30.33 in 10.0 mi North 8.1 mph - N/A   Clear
1:26 PM 57.2 °F - 21.2 °F 25% 30.32 in 10.0 mi North 10.4 mph 16.1 mph N/A   Clear
1:46 PM 57.2 °F - 19.4 °F 23% 30.31 in 10.0 mi NE 9.2 mph 18.4 mph N/A   Clear
2:06 PM 57.2 °F - 19.4 °F 23% 30.31 in 10.0 mi North 12.7 mph 18.4 mph N/A   Scattered Clouds
2:26 PM 57.2 °F - 19.4 °F 23% 30.30 in 10.0 mi North 3.5 mph 19.6 mph N/A   Scattered Clouds
2:46 PM 59.0 °F - 19.4 °F 22% 30.29 in 10.0 mi NNE 5.8 mph 9.2 mph N/A   Clear
3:06 PM 57.2 °F - 21.2 °F 25% 30.29 in 10.0 mi NNE 18.4 mph 21.9 mph N/A   Clear
3:26 PM 57.2 °F - 21.2 °F 25% 30.29 in 10.0 mi North 13.8 mph 21.9 mph N/A   Clear
3:46 PM 57.2 °F - 21.2 °F 25% 30.29 in 10.0 mi NNE 15.0 mph 20.7 mph N/A   Clear
4:06 PM 57.2 °F - 21.2 °F 25% 30.29 in 10.0 mi North 12.7 mph 17.3 mph N/A   Clear
4:26 PM 57.2 °F - 21.2 °F 25% 30.29 in 10.0 mi NNE 11.5 mph 20.7 mph N/A   Clear
4:46 PM 55.4 °F - 19.4 °F 25% 30.29 in 10.0 mi NE 15.0 mph 24.2 mph N/A   Clear
5:06 PM 55.4 °F - 19.4 °F 25% 30.28 in 10.0 mi NNE 9.2 mph - N/A   Clear
5:26 PM 55.4 °F - 19.4 °F 25% 30.28 in 10.0 mi NE 11.5 mph 16.1 mph N/A   Clear
5:46 PM 53.6 °F - 19.4 °F 26% 30.29 in 10.0 mi NE 6.9 mph 10.4 mph N/A   Clear
6:06 PM 51.8 °F - 19.4 °F 28% 30.28 in 10.0 mi NNE 9.2 mph - N/A   Clear
6:26 PM 51.8 °F - 19.4 °F 28% 30.29 in 10.0 mi NE 6.9 mph - N/A   Clear
6:46 PM 50.0 °F - 19.4 °F 30% 30.29 in 10.0 mi NE 4.6 mph - N/A   Clear
7:06 PM 46.4 °F - 21.2 °F 37% 30.30 in 10.0 mi Calm Calm - N/A   Clear
7:26 PM 48.2 °F - 21.2 °F 34% 30.30 in 10.0 mi Calm Calm - N/A   Clear
7:46 PM 46.4 °F - 21.2 °F 37% 30.30 in 10.0 mi Calm Calm - N/A   Clear
8:06 PM 42.8 °F - 24.8 °F 49% 30.31 in 10.0 mi Calm Calm - N/A   Clear
8:26 PM 44.6 °F - 23.0 °F 43% 30.32 in 10.0 mi Calm Calm - N/A   Clear
8:46 PM 37.4 °F 34.9 °F 26.6 °F 65% 30.32 in 10.0 mi SW 3.5 mph - N/A   Clear
9:06 PM 37.4 °F - 26.6 °F 65% 30.32 in 10.0 mi Calm Calm - N/A   Clear
9:26 PM 35.6 °F 32.8 °F 26.6 °F 70% 30.33 in 10.0 mi SSW 3.5 mph - N/A   Clear
9:46 PM 39.2 °F - 26.6 °F 61% 30.33 in 10.0 mi Calm Calm - N/A   Clear
10:06 PM 37.4 °F - 26.6 °F 65% 30.33 in 10.0 mi Calm Calm - N/A   Clear
10:26 PM 35.6 °F - 26.6 °F 70% 30.33 in 10.0 mi Calm Calm - N/A   Clear
10:46 PM 33.8 °F - 28.4 °F 81% 30.33 in 10.0 mi Calm Calm - N/A   Clear
11:06 PM 32.0 °F - 26.6 °F 80% 30.33 in 10.0 mi Calm Calm - N/A   Clear
11:26 PM 32.0 °F - 26.6 °F 80% 30.33 in 10.0 mi Calm Calm - N/A   Clear
11:46 PM 32.0 °F - 28.4 °F 87% 30.33 in 10.0 mi Calm Calm - N/A   Clear